Date String (YYYY-MM-DD hh:mm:ss) UTC,Instrument flags,Ambient pressure (hPa),Sample flow (lpm),Bypass flow (lpm),Sample temperature (°C),Ambient temperature (°C),ASC tube jacket temperature (°C),LED temperature (°C),Box temperature (°C),Sample RH (%),Span deviation,Mass concentration (μg/m³),Mass concentration (μg/m³),Mass concentration (μg/m³)
DateTimeUTC,F1_M11,P_M11,Q1_M11,Q2_M11,T1_M11,T2_M11,T3_M11,T4_M11,T5_M11,U1_M11,ZSPAN_M11,X0_M11,X2_M11,X1_M11
2022-06-16 20:00:00,,0829.2,4.98,0.00,29.1,28.2,00.0,37.7,31.1,20.0,0000.0,0033.39,0007.21,0004.21
2022-06-16 20:01:00,,0829.3,5.00,0.00,29.1,28.1,00.0,37.7,31.1,20.3,0000.0,0034.64,0007.24,0004.24
2022-06-16 20:02:00,,0829.2,5.00,0.00,29.0,27.3,00.0,37.7,30.9,20.3,0000.0,0036.08,0007.35,0004.25
2022-06-16 20:03:00,,0829.2,5.01,0.00,29.0,26.9,00.0,37.7,30.7,20.0,0000.0,0039.16,0007.49,0004.27
2022-06-16 20:04:00,,0829.3,4.99,0.00,28.9,26.9,00.0,37.7,30.7,20.1,0000.0,0041.27,0007.46,0004.29
2022-06-16 20:05:00,,0829.2,4.99,0.00,28.9,27.0,00.0,37.6,30.8,20.3,0000.0,0039.39,0007.51,0004.32
2022-06-16 20:06:00,,0829.3,5.01,0.00,28.9,27.1,00.0,37.7,30.8,20.3,0000.0,0039.49,0007.63,0004.33
2022-06-16 20:07:00,,0829.3,5.00,0.00,28.9,27.4,00.0,37.7,30.9,20.6,0000.0,0037.62,0007.57,0004.34
2022-06-16 20:08:00,,0829.2,5.01,0.00,28.9,27.6,00.0,37.7,30.9,20.4,0000.0,0035.96,0007.65,0004.37
2022-06-16 20:09:00,,0829.3,5.00,0.00,29.0,27.8,00.0,37.7,31.0,19.9,0000.0,0036.73,0007.69,0004.41
2022-06-16 20:10:00,,0829.3,4.99,0.00,29.0,27.9,00.0,37.7,31.1,19.9,0000.0,0037.53,0007.66,0004.43
2022-06-16 20:11:00,,0829.2,5.01,0.00,29.0,28.1,00.0,37.7,31.1,19.8,0000.9,0037.72,0007.56,0004.43
2022-06-16 20:12:00,,0829.2,5.00,0.00,29.1,28.2,00.0,37.8,31.2,19.9,0001.3,0036.36,0007.48,0004.42
2022-06-16 20:13:00,,0829.1,4.99,0.00,29.1,28.0,00.0,37.7,31.1,20.0,0001.3,0035.38,0007.49,0004.43
2022-06-16 20:14:00,,0829.1,5.00,0.00,29.1,27.2,00.0,37.7,30.9,20.3,0000.0,0033.61,0007.50,0004.45
2022-06-16 20:15:00,,0829.1,4.99,0.00,29.0,26.9,00.0,37.7,30.8,19.8,0000.0,0032.57,0007.55,0004.44
2022-06-16 20:16:00,,0829.0,5.02,0.00,29.0,26.9,00.0,37.7,30.8,20.3,0000.0,0032.80,0007.54,0004.43
2022-06-16 20:17:00,,0829.1,5.00,0.00,28.9,27.1,00.0,37.7,30.8,20.1,0000.0,0032.98,0007.54,0004.44
2022-06-16 20:18:00,,0829.1,4.99,0.00,28.9,27.3,00.0,37.7,30.9,20.3,0000.0,0034.27,0007.63,0004.45
2022-06-16 20:19:00,,0829.1,5.01,0.00,29.0,27.5,00.0,37.7,30.9,21.1,0000.0,0034.82,0007.63,0004.43
2022-06-16 20:20:00,,0829.1,5.00,0.00,29.0,27.7,00.0,37.7,31.0,21.1,0000.0,0033.07,0007.64,0004.43
2022-06-16 20:21:00,,0829.0,4.99,0.00,29.0,27.9,00.0,37.7,31.1,20.9,0000.0,0032.39,0007.77,0004.44
2022-06-16 20:22:00,,0829.0,5.00,0.00,29.1,28.0,00.0,37.8,31.1,20.7,0000.0,0031.63,0007.87,0004.45
2022-06-16 20:23:00,,0829.1,5.01,0.00,29.1,28.2,00.0,37.8,31.2,21.0,0000.0,0032.74,0007.94,0004.45
2022-06-16 20:24:00,,0829.0,5.00,0.00,29.1,28.1,00.0,37.8,31.1,20.4,0000.0,0034.60,0007.94,0004.45
2022-06-16 20:25:00,,0829.0,5.00,0.00,29.1,27.4,00.0,37.7,31.0,20.4,0000.0,0034.27,0007.95,0004.44
2022-06-16 20:26:00,,0829.0,4.99,0.00,29.0,27.0,00.0,37.7,30.8,19.5,0000.0,0033.85,0007.89,0004.45
2022-06-16 20:27:00,,0828.9,5.01,0.00,29.0,27.0,00.0,37.7,30.8,19.6,0000.0,0034.97,0007.96,0004.46
2022-06-16 20:28:00,,0828.9,5.00,0.00,29.0,27.1,00.0,37.7,30.8,19.5,0000.0,0034.38,0007.88,0004.46
2022-06-16 20:29:00,,0828.9,5.00,0.00,28.9,27.3,00.0,37.7,30.9,19.1,0000.0,0033.08,0007.82,0004.46
2022-06-16 20:30:00,,0828.9,5.00,0.00,29.0,27.5,00.0,37.7,30.9,19.7,0000.0,0032.70,0007.82,0004.49
2022-06-16 20:31:00,,0829.0,4.99,0.00,29.0,27.7,00.0,37.7,31.0,19.0,0000.0,0033.36,0007.87,0004.50
2022-06-16 20:32:00,,0829.0,5.00,0.00,29.0,27.9,00.0,37.7,31.1,19.1,0000.0,0033.31,0007.74,0004.49
2022-06-16 20:33:00,,0828.9,4.99,0.00,29.1,28.0,00.0,37.8,31.1,19.0,0000.0,0032.88,0007.67,0004.49
2022-06-16 20:34:00,,0828.9,5.01,0.00,29.1,28.2,00.0,37.8,31.2,18.9,0000.0,0032.39,0007.74,0004.51
2022-06-16 20:35:00,,0828.9,5.00,0.00,29.1,28.2,00.0,37.8,31.2,19.5,0000.0,0030.03,0007.69,0004.51
2022-06-16 20:36:00,,0828.8,5.00,0.00,29.1,27.5,00.0,37.7,31.0,18.9,0001.1,0030.04,0007.69,0004.50
2022-06-16 20:37:00,,0828.8,5.00,0.00,29.0,27.0,00.0,37.7,30.8,19.5,0000.0,0030.50,0007.72,0004.50
2022-06-16 20:38:00,,0828.9,4.99,0.00,29.0,26.9,00.0,37.7,30.8,20.0,0000.0,0030.03,0007.72,0004.49
2022-06-16 20:39:00,,0829.2,5.00,0.00,29.0,27.0,00.0,37.7,30.8,20.0,0000.0,0030.91,0007.74,0004.50
2022-06-16 20:40:00,,0829.1,5.01,0.00,29.0,27.2,00.0,37.7,30.9,19.5,0000.0,0031.67,0007.75,0004.50
2022-06-16 20:41:00,,0829.3,4.99,0.00,29.0,27.4,00.0,37.7,30.9,20.2,0000.0,0031.89,0007.71,0004.50
2022-06-16 20:42:00,,0829.3,5.00,0.00,29.0,27.6,00.0,37.7,31.0,19.6,0000.0,0032.49,0007.62,0004.49
2022-06-16 20:43:00,,0829.1,5.00,0.00,29.0,27.8,00.0,37.8,31.1,19.5,0000.0,0031.69,0007.63,0004.49
2022-06-16 20:44:00,,0829.3,5.00,0.00,29.1,28.0,00.0,37.8,31.1,19.6,0000.0,0034.54,0007.76,0004.47
2022-06-16 20:45:00,,0829.1,5.00,0.00,29.1,28.2,00.0,37.8,31.2,19.6,0000.0,0035.84,0007.80,0004.46
2022-06-16 20:46:00,,0828.7,5.01,0.00,29.2,28.3,00.0,37.8,31.2,19.4,0000.7,0036.65,0007.86,0004.45
2022-06-16 20:47:00,,0828.7,5.00,0.00,29.1,27.7,00.0,37.8,31.1,19.2,0000.0,0036.09,0007.83,0004.44
2022-06-16 20:48:00,,0828.8,5.00,0.00,29.1,27.1,00.0,37.7,30.9,19.0,0000.0,0036.73,0007.80,0004.45
2022-06-16 20:49:00,,0829.0,5.00,0.00,29.0,27.0,00.0,37.7,30.8,18.8,0000.0,0036.80,0007.76,0004.45
2022-06-16 20:50:00,,0829.1,4.99,0.00,29.0,27.1,00.0,37.7,30.9,19.3,0000.0,0035.69,0007.80,0004.45
2022-06-16 20:51:00,,0829.3,5.01,0.00,29.0,27.2,00.0,37.7,30.9,19.0,0000.6,0035.40,0007.79,0004.44
2022-06-16 20:52:00,,0829.0,4.99,0.00,29.0,27.4,00.0,37.8,31.0,18.7,0002.6,0034.71,0007.84,0004.43
2022-06-16 20:53:00,,0828.6,4.99,0.00,29.0,27.6,00.0,37.8,31.0,18.9,0001.7,0034.55,0007.93,0004.44
2022-06-16 20:54:00,,0828.8,5.00,0.00,29.1,27.8,00.0,37.8,31.1,19.3,0001.6,0034.42,0007.96,0004.44
2022-06-16 20:55:00,,0829.1,4.99,0.00,29.1,28.0,00.0,37.8,31.2,19.5,0001.8,0031.35,0007.88,0004.46
2022-06-16 20:56:00,,0828.7,5.01,0.00,29.1,28.2,00.0,37.8,31.2,19.4,0002.4,0030.02,0007.81,0004.48
2022-06-16 20:57:00,,0828.9,5.01,0.00,29.2,28.1,00.0,37.8,31.2,19.3,0000.7,0029.76,0007.77,0004.49
2022-06-16 20:58:00,,0829.1,5.00,0.00,29.1,27.4,00.0,37.8,31.0,19.1,0000.0,0031.89,0007.89,0004.51
2022-06-16 20:59:00,,0829.0,4.99,0.00,29.1,27.0,00.0,37.7,30.8,19.7,0000.0,0032.18,0007.92,0004.50
